Regional Weather Roundup
Issued by NWS Upton, NY

Home | Current Version | Previous Version | Text Only | Print | Product List | Glossary On
Versions: 1 2 3 4 5 6 7 8 9 10 11 12 13 14 15 16 17 18 19 20 21 22 23 24 25 26 27 28 29 30 31 32 33 34 35 36 37 38 39 40 41 42 43 44 45 46 47 48 49
000
ASUS41 KOKX 061605
RWROKX

REGIONAL WEATHER ROUNDUP
NATIONAL WEATHER SERVICE NEW YORK NY
1100 AM EST FRI MAR 06 2015

NOTE: "FAIR" INDICATES FEW OR NO CLOUDS BELOW 12,000 FEET WITH NO
SIGNIFICANT WEATHER AND/OR OBSTRUCTIONS TO VISIBILITY.

NYZ071-072-176-178-NJZ106-104-061700-
NEW YORK CITY METRO AREA


CITY           SKY/WX    TMP DP  RH WIND       PRES   REMARKS
CENTRAL PARK   SUNNY     20   2  45 VRB5      30.55F WCI  13
LAGUARDIA APRT SUNNY     22   2  42 CALM      30.55S
KENNEDY INTL   SUNNY     22   2  42 N7        30.56S WCI  13
NEWARK/LIBERTY SUNNY     20   4  50 E5        30.55F WCI  13
BRNX BOT. GARD   N/A    N/A N/A N/A W7        30.54F
TETERBORO      SUNNY     19   1  45 SW3       30.54F
$$

NYZ177-179-078>081-061700-
LONG ISLAND NEW YORK

CITY           SKY/WX    TMP DP  RH WIND       PRES   REMARKS
FARMINGDALE    SUNNY     21   1  41 N7        30.54S WCI  12
ISLIP          SUNNY     21   2  43 NE7       30.51R WCI  12
SHIRLEY        SUNNY     21   2  43 N9        30.54R WCI  11
WESTHAMPTON    SUNNY     20   3  48 N7        30.54R WCI  11
MONTAUK POINT    N/A     21   3  45 N6        30.52S WCI  13
$$

NYZ052-065-067-061700-
HUDSON VALLEY

CITY           SKY/WX    TMP DP  RH WIND       PRES   REMARKS
WHITE PLAINS   SUNNY     19  -1  41 CALM      30.50S
NEWBURGH       SUNNY     16   1  53 CALM      30.51F
MONTGOMERY     SUNNY     18  -1  43 VRB3      30.50F
POUGHKEEPSIE   SUNNY     18   0  45 CALM      30.53F
ALBANY         SUNNY     18  -4  37 W8        30.52F WCI   8
$$

NJZ001-105-106-008-010-013-015-019>022-104-061700-
NEW JERSEY

CITY           SKY/WX    TMP DP  RH WIND       PRES   REMARKS
NEWARK/LIBERTY SUNNY     20   4  50 E5        30.55F WCI  13
TETERBORO      SUNNY     19   1  45 SW3       30.54F
CALDWELL       SUNNY     20   0  41 SW3       30.54F
MORRISTOWN     SUNNY     18   5  57 SE3       30.55F
SOMERVILLE     SUNNY     21   3  45 VRB3      30.53F
SUSSEX         MIX PCPN  18   1  47 CALM      30.50F
ANDOVER          N/A     19  -1  41 NE3       30.50F
TRENTON        SUNNY     19   2  47 E3        30.55F
MILLVILLE      SUNNY     20   5  52 NE6       30.56F WCI  12
ATLANTIC CITY  SUNNY     21  11  65 N8        30.55F WCI  11
WRIGHTSTOWN    SUNNY     18   4  54 NW6       30.53F WCI  10
TOMS RIVER     MOSUNNY   19   9  63 N5        30.56S WCI  13
BELMAR         SUNNY     19   5  53 CALM      30.54S
$$

PAZ047>061-062-071-061700-
EASTERN PENNSYLVANIA

CITY           SKY/WX    TMP DP  RH WIND       PRES   REMARKS
PHILADELPHIA   SUNNY     19   6  57 N7        30.58F WCI  10
ALLENTOWN      SUNNY     18   1  47 CALM      30.54F
SCRANTON       SUNNY     14   1  56 CALM      30.48F
$$

CTZ002-004>006-009-010-012-RIZ004-006-007-MAZ004-011-015-061700-
SOUTHERN NEW ENGLAND
 IN CT

CITY           SKY/WX    TMP DP  RH WIND       PRES   REMARKS
BRADLEY INTL   SUNNY     21  -4  33 N6        30.50F WCI  13
HARTFORD       SUNNY     19  -3  38 N8        30.52F WCI   9
DANBURY        SUNNY     18  -2  41 N8        30.50F WCI   8
WTRBRY/OXFORD  SUNNY     18  -6  35 N12       30.46F WCI   5
BRIDGEPORT     SUNNY     20   2  45 CALM      30.53F
MERIDEN        SUNNY     21  -3  35 MISG      30.51F
NEW HAVEN      SUNNY     20   0  41 N12       30.51F WCI   8
CHESTER        FAIR      19   0  42 N6        30.48S WCI  11
GROTON         SUNNY     19  -3  38 N6        30.51S WCI  11
WILLIMANTIC    SUNNY     22  -8  26 CALM      30.49F

 IN RI

CITY           SKY/WX    TMP DP  RH WIND       PRES   REMARKS
PROVIDENCE     SUNNY     18  -7  32 N8        30.50F WCI   8
BLOCK ISLAND   SUNNY     19   3  49 NE9       30.47S WCI   9
WESTERLY       SUNNY     21   1  41 VRB5      30.51S WCI  15

 IN MA

CITY           SKY/WX    TMP DP  RH WIND       PRES   REMARKS
BOSTON         MOSUNNY   20  -5  33 CALM      30.50F
WORCESTER      SUNNY     17  -9  31 CALM      30.40F
WESTFIELD      SUNNY     20  -6  31 CALM      30.49F
PROVINCETOWN   MOSUNNY   21   3  45 N7        30.48S WCI  13
NANTUCKET      CLOUDY    24  14  65 N13       30.45S WCI  12
$$

ANZ330-335-338-340-345-350-353-355-061700-
COASTAL MARINE OBSERVATIONS


STATION/POSITION TIME  SKY/WX   TEMP    WIND        PRES    VSBY  WAVE
                                AIR SEA DIR/SP/G                  HT/PER
                 (UTC)          (F)     (DEG/KT/KT) (MB)    (MI)  (FT/S)
NY HARB ENTRANCE 1600            19 37  360/ 10/ 14 1034.3          2/ 4
4S FIRE IS       NOT AVBL
20S FIRE ISLAND  1500               36              1034.4          4/ 5
23SW MTP         1600                                 N/A           3/ 5
HUDSON CANYON    NOT AVBL
EXECUTION ROCKS  NOT AVBL
WESTERN LI SOUND NOT AVBL
CENTRAL LI SOUND NOT AVBL
EASTERN LI SOUND NOT AVBL
ROBBINS REEF     1600            17     320/  6/  9 1033.5
$$


>>>>>>>>>>>>>>>>>>>>>>>>>>>> KEY <<<<<<<<<<<<<<<<<<<<<<<<<<<
>                                                          <
>     SKY/WX - SKY CONDITION/PRESENT WEATHER               <
>     TMP    - TEMPERATURE IN FAHRENHEIT                   <
>     DP     - DEWPOINT IN FAHRENHEIT                      <
>     RH     - RELATIVE HUMIDITY IN PERCENT                <
>     WIND   - DIRECTION AND SPEED IN MPH                  <
>     PRES   - MEAN SEA LEVEL PRESSURE IN INCHES OF HG     <
>     WCI    - WIND CHILL INDEX                            <
>     VSB    - VISIBILITY IN MILES                         <
>     HX     - HEAT INDEX                                  <
>     TC     - TEMPERATURE IN CELSIUS                      <
>     VRB    - VARIABLE WIND DIRECTION                     <
>                                                          <
>>>>>>>>>>>>>>>>>>>>>>>>>>>> KEY <<<<<<<<<<<<<<<<<<<<<<<<<<<




USA.gov is the U.S. government's official web portal to all federal, state and local government web resources and services.